www.pogodaiklimat.ru

Погода и климат >> Архив погоды >> Доминиканская Республика >> Сабана де ла Мар


ПОГОДА в Сабана де ла Мар

  • Прогноз погоды в Сабана де ла Мар
  • Монитор погоды в Сабана де ла Мар

АРХИВ ПОГОДЫ в Сабана де ла Мар

Время (UTC), дата Ветер
(напр.,м/с)
 
Видим.   Явления Облачность Т
(С)
Тd
(С)
f
(%)
Тe
(С)
Тes
(С)
Комфортность P
(гПа)
Po
(гПа)
Тmin
(С)
Tmax
(С)
R
(мм)
R24
(мм)
S
(см)
12 11.09 Ю 2 16 км 5/1 480 м
[Cu med, cong Ci fib]
+24.2 +22.5 90 +32 +34 очень
душно
1014.4 1013.2 +23.0 +33.2
15 11.09 Ю 2 16 км 8/3 600 м
[Cu med, cong Ci sp]
+32.4 +25.7 68 +48 +58 опасность
перегрева
1014.5 1013.4
18 11.09 В 3 16 км 9/5 540 м
[Cb cap Ac cast]
+32.8 +26.7 70 +50 +53 опасность
перегрева
1011.5 1010.4 +23.0 +35.0
21 11.09 В 3 16 км 9/6 480 м
[Cb cap Ac cast]
+31.0 +25.6 73 +46 +46 опасность
перегрева
1011.3 1010.2
00 12.09 ЮВ 2 16 км зарница 9/8 480 м
[Cb cap Ac trans]
+29.0 +24.9 79 +42 +42 опасность
перегрева
1011.5 1010.4 +23.0 +35.0
12 12.09 Ю 2 16 км 5/1 450 м
[Cu med, cong Ci fib]
+26.6 +24.1 86 +37 +39 очень
душно
1013.4 1012.2 +23.0 +35.0
15 12.09 Ю 3 16 км 8/4 600 м
[Cu med, cong Cs]
+31.6 +26.3 74 +48 +55 опасность
перегрева
1013.0 1011.9
18 12.09 В 4 16 км 9/4 600 м
[Cu med, cong Ci]
+33.2 +27.2 71 +52 +58 опасность
перегрева
1012.2 1011.1 +23.0 +36.2
21 12.09 ЮВ 3 16 км 9/5 600 м
[Cu med, cong Ci fib]
+31.4 +26.4 75 +48 +49 опасность
перегрева
1011.4 1010.3
12 13.09 штиль 0 16 км 4/1 540 м
[Cu med, cong Ci fib]
+26.0 +24.1 89 +36 +39 очень
душно
1012.2 1011.0 +36.2
15 13.09 В 3 16 км 4/4 600 м
[Cu med, cong]
+32.2 +28.0 79 +53 +61 опасность
перегрева
1013.5 1012.4
18 13.09 В 4 16 км 5/4 600 м
[Cu med, cong Ci fib]
+33.0 +27.8 74 +53 +60 опасность
перегрева
1012.0 1010.9 +24.0 +35.0
21 13.09 ЮВ 3 16 км гроза без осадков 8/8 540 м
[Cb cap]
+30.0 +26.0 79 +45 +46 опасность
перегрева
1012.1 1011.0
00 14.09 штиль 0 16 км {гроза} 3/1 540 м
[Cu med, cong Ci fib]
+28.4 +26.5 89 +43 +43 опасность
перегрева
1012.8 1011.7 +24.0 +35.0
15 14.09 ЮВ 2 16 км 4/3 600 м
[Cu med, cong Ci fib]
+30.6 +25.8 76 +46 +57 опасность
перегрева
1015.0 1013.9
18 14.09 В 4 16 км 3/3 600 м
[Cu med, cong]
+33.4 +27.1 70 +52 +60 опасность
перегрева
1013.4 1012.3 +23.8 +35.0
21 14.09 Ю 2 16 км {гроза} 9/8 540 м
[Cb cap Ci fib]
+30.2 +26.2 79 +46 +46 опасность
перегрева
1012.8 1011.7
00 15.09 В 4 16 км {гроза} 9/9 540 м
[Cb cap]
+29.8 +25.8 79 +44 +44 опасность
перегрева
1014.9 1013.8 +23.8 +35.0
12 15.09 Ю 2 16 км 8/8 450 м
[Cu med, cong]
+27.0 +25.4 91 +39 +40 очень
душно
1016.2 1015.0 +24.6 +35.0 4
15 15.09 В 3 16 км 6/4 600 м
[Cu med, cong Ci fib]
+32.4 +27.4 75 +51 +59 опасность
перегрева
1016.5 1015.4
18 15.09 В 4 16 км 5/3 600 м
[Cu med, cong Ci fib]
+32.6 +26.5 70 +49 +57 опасность
перегрева
1014.9 1013.8 +24.6 +35.0
21 15.09 В 4 16 км 6/3 600 м
[Cu med, cong Ci]
+31.0 +26.8 78 +48 +49 опасность
перегрева
1013.7 1012.6
12 16.09 Ю 2 16 км 1/1 450 м
[Cu med, cong]
+27.2 +24.6 86 +39 +41 очень
душно
1015.1 1013.9 +24.5 +35.5 1
15 16.09 В 3 16 км 3/3 600 м
[Cu med, cong]
+31.6 +23.3 61 +42 +52 опасность
перегрева
1015.3 1014.2
21 16.09 ЮЗ 2 16 км {гроза} 8/8 540 м
[Cb cap]
+28.4 +23.7 76 +39 +40 очень
душно
1011.8 1010.7
12 17.09 ЮЗ 2 н/о 1/1 540 м
[Cu med, cong]
+26.4 +24.2 88 +37 +39 очень
душно
1012.1 1010.9 +23.8 +35.5
15 17.09 В 3 16 км 5/4 540 м
[Cu med, cong Ci fib]
+30.6 +25.5 74 +45 +53 опасность
перегрева
1012.9 1011.8
18 17.09 Ю 2 10 км гроза, ливневой дождь 10/8 450 м
[Cb cap As op]
+27.0 +25.1 89 +39 +40 очень
душно
1012.0 1010.8 +23.8 +35.0 2
21 17.09 штиль 0 16 км в посл. час дождь {гроза} 9/5 450 м
[Cb cap As op]
+25.0 +23.9 94 +34 +35 очень
душно
1011.3 1010.1 5

 

Местоположение метеостанции Сабана де ла Мар (Доминиканская Республика): широта 19.05 долгота -69.38 высота над уровнем моря 10 м.

В архиве по умолчанию представлена погода в Сабана де ла Мар за последнюю неделю. Архивные данные за месяц целиком и за предыдущие месяцы, начиная с января 2011 года, Вы можете получить, выбрав интересующий диапазон дат из раскрывающегося списка и нажав кнопку "Ввод!".


*Определитесь, кто Вы:
робот инопланетянин человек

Внимание! Время в таблицах - всемирное. Для получения местного времени необходимо прибавить поправку, которая равна -4 ч.

Смотрите также архив погоды в соседних городах и на ближайших метеорологических станциях:

Погода в Лас Америкас (Доминиканская Республика) (75 км)
Погода в Ла Романа аэропорту (Доминиканская Республика) (82 км)
Погода в Санто-Доминго (Доминиканская Республика) (87 км)
Погода в Пунта-Кане (Доминиканская Республика) (120 км)
Погода в Пуэрто-Плате (Доминиканская Республика) (145 км)
Погода в Сантьяго (Доминиканская Республика) (146 км)
Погода в Бараоне (Доминиканская Республика) (204 км)
Погода в Шарлотта-Амалии (Виргинские Острова) (472 км)
Погода в Пунта-де-Маиси (Куба) (517 км)
Погода в Принцессы Юлианы аэропорту (Нидерландские Антилы) (671 км)

Пояснения к столбцам:

Ветер - указаны скорость ветра в м/с - средняя за 10 мин, порывы в срок и между сроками (в фигурных скобках) и направление, откуда дует ветер: С - северный, СВ - северо-восточный, В - восточный, ЮВ - юго-восточный, Ю - южный, ЮЗ - юго-западный, З - западный, СЗ - северо-западный.
Видимость - горизонтальная дальность видимости в метрах или километрах. При видимости от 1 до 10 км при отсутствии осадков обычно наблюдается дымка, при ухудшении видимости до 1 км и менее - туман. В сухую погоду видимость может ухудшаться дымом, пылью или мглою.
Явления - указаны атмосферные явления, наблюдавшиеся в срок или в последний час перед сроком; фигурными скобками обозначены явления, наблюдавшиеся между сроками (за 1-3 часа до срока); квадратными скобками обозначены град или гололедные отложения с указанием их диаметра в мм.
Облачность - указаны через наклонную черту общая и нижняя облачность в баллах и высота нижней границы облаков в метрах; квадратными скобками обозначены формы облаков: Ci - перистые, Cs - перисто-слоистые, Cc - перисто-кучевые, Ac - высококучевые, As - высокослоистые, Sc - слоисто-кучевые, Ns - слоисто-дождевые, Cu - кучевые, Cb - кучево-дождевые. Подробнее классификацию облаков см. в Атласе облаков (PDF).
T - Температура воздуха - температура, измеренная на высоте 2 м над землей.
Td - Температура точки росы - температура, при понижении до которой содержащийся в воздухе водяной пар достигнет насыщения.
f - Относительная влажность воздуха - влажноcть воздуха, измеренная на высоте 2 м над землей.
Te - Эффективная температура - температура, которую ощущает одетый по сезону человек в тени. Характеристика душности погоды. При расчете учитывается влияние влажности воздуха и скорости ветра на теплоощущения человека.
Tes - Эффективная температура на солнце - температура, которую ощущает человек, с поправкой на солнечный нагрев. Характеристика знойности погоды. Зависит от высоты солнца над горизонтом, облачности и скорости ветра. Ночью, в пасмурную погоду, а также при ветре 12 м/с и более поправка равна нулю.
P - Атмосферное давление - приведенное к уровню моря атмосферное давление.
Po - Атмосферное давление - измеренное на уровне метеостанции атмосферное давление.
Tmin - Минимальная температура - минимум температуры воздуха на высоте 2 м над землей.
Tmax - Максимальная температура - максимум температуры воздуха на высоте 2 м над землей.
R - Количество осадков - Количество выпавших осадков за период времени, мм. При наведении курсора мыши на число - период времени, за который выпало указанное количество осадков.
R24 - Количество осадков - Количество выпавших осадков за 24 часа, мм.
S - Снежный покров - Высота снежного покрова, см. При наведении курсора мыши на число - состояние снежного покрова и степень покрытия местности в баллах.